Location: Orange
(40.7703°N, 74.2325°W)
Time: 18:24:29
(UTC+00:00)

N. Korean satellite - Visible Passes

Search period start: 09 December 2022 00:00
Search period end: 19 December 2022 00:00
Orbit: 420 x 452 km, 97.3° (Epoch: 08 December)

Date Brightness Start Highest point End Pass type
(mag) Time Alt. Az. Time Alt. Az. Time Alt. Az.
09 Dec 9.0 09:34:54 10° NE 09:37:31 21° E 09:40:08 10° SSE visible
09 Dec 7.7 11:07:26 10° NNW 11:09:53 19° WNW 11:12:19 10° WSW visible
10 Dec 6.2 10:27:38 10° N 10:30:58 64° WNW 10:34:15 10° SSW visible
10 Dec 9.8 22:30:28 10° WSW 22:32:09 13° W 22:33:51 10° WNW visible
11 Dec 8.2 09:48:43 10° NNE 09:51:47 32° E 09:54:47 10° SSE visible
11 Dec 8.2 11:22:20 10° NW 11:23:56 13° WNW 11:25:31 10° W visible
12 Dec 6.7 10:41:51 10° N 10:45:00 39° WNW 10:48:07 10° SW visible
13 Dec 7.2 10:03:23 16° NNE 10:05:49 51° E 10:09:01 10° S visible
13 Dec 8.9 22:03:50 10° SSW 22:06:47 27° W 22:09:45 10° NW visible
14 Dec 9.5 09:24:58 12° ENE 09:26:21 15° E 09:28:19 10° SE visible
14 Dec 7.3 10:58:23 25° NW 10:58:51 26° WNW 11:01:38 10° SW visible
15 Dec 6.3 10:19:18 69° NNE 10:19:39 84° ESE 10:22:56 10° S visible
15 Dec 9.5 22:18:12 10° SW 22:20:39 18° W 22:23:06 10° NW visible
16 Dec 8.8 09:40:03 22° E 09:40:10 22° E 09:42:48 10° SSE visible
16 Dec 8.0 11:13:25 16° W 11:13:25 16° W 11:14:45 10° WSW visible
17 Dec 6.7 10:34:01 45° SW 10:34:01 45° SW 10:36:30 10° SSW visible
17 Dec 9.8 22:32:50 10° WSW 22:34:21 12° W 22:35:52 10° WNW visible
18 Dec 8.2 09:54:31 29° SE 09:54:31 29° SE 09:56:47 10° SSE visible
